Weather Roundup
Issued by NWS Chicago, IL

Home | Current Version | Previous Version | Text Only | Print | Product List | Glossary On
Versions: 1 2 3 4 5 6 7 8 9 10 11 12 13 14 15 16 17 18 19 20 21 22 23 24 25 26 27 28 29 30 31 32 33 34 35 36 37 38 39 40 41 42 43 44 45 46 47 48 49 50
000
NZUS59 KLOT 230510
HRRLOT

CHICAGO AREA WEATHER ROUNDUP
NATIONAL WEATHER SERVICE CHICAGO/ROMEOVILLE IL
1200 AM CDT SAT AUG 23 2014

NOTE: "FAIR" INDICATES FEW OR NO CLOUDS BELOW 12,000 FEET WITH NO
SIGNIFICANT WEATHER AND/OR OBSTRUCTIONS TO VISIBILITY.

* THESE STATIONS ARE NOT UNDER NWS QUALITY CONTROL. THEY ALSO MAY NOT
  REPORT WEATHER SUCH AS PRECIPITATION OR FOG.

ILZ005-006-012>014-019>023-230600-
NORTHEAST ILLINOIS

CITY           SKY/WX    TMP DP  RH WIND       PRES   REMARKS
OHARE          PTCLDY    77  70  79 CALM      29.98F
MIDWAY         PTCLDY    79  74  84 CALM      29.98F HX  82
AURORA         CLOUDY    75  72  90 S3        29.98F
LANSING*       CLEAR     73  72  97 CALM      29.99S
JOLIET*        PTCLDY    73  72  94 CALM      29.98F
WAUKEGAN       MOCLDY    73  71  93 NE6       29.98F FOG
DUPAGE AIRPORT CLEAR     75  73  93 SE5       29.98F
WHEELING       PTCLDY    76  72  87 CALM      29.99F
KANKAKEE*      PTCLDY    71  71  98 E3        29.99F
MORRIS*        CLEAR     74  74 100 CALM      29.97F
LEWIS AIRPORT* PTCLDY    73  73  98 E3        29.98F
NORTHERLY IS     N/A     74  71  91 NE1         N/A
$$

WIZ051-052-058>065-066-070>072-230600-
SOUTHEAST WISCONSIN

CITY           SKY/WX    TMP DP  RH WIND       PRES   REMARKS
MILWAUKEE      FOG       70  68  93 NE5       30.00S VSB 1/8
KENOSHA*       FOG       72  71  97 NE3       30.00S VSB 1
RACINE*        FOG       70  69  97 NE3       30.02S VSB 1/4
BURLINGTON     CLOUDY    71  70  98 CALM      30.00S FOG
WAUKESHA       CLOUDY    68  68 100 E3        30.01S FOG
WEST BEND      FOG       68  66  94 CALM      30.01S VSB<1/4
$$

INZ001>003-010>013-019-020-230600-
NORTHWEST INDIANA

CITY           SKY/WX    TMP DP  RH WIND       PRES   REMARKS
GARY*          CLEAR     74  72  92 CALM      29.98F
MICHIGAN CITY* NOT AVBL
RENSSELAER*    NOT AVBL
VALPARAISO     CLEAR     72  70  93 CALM      30.00F
$$

LMZ740>746-230600-
SOUTHERN LAKE MICHIGAN

STATION/POSITION TIME  SKY/WX   TEMP WIND        PRES    VSBY
                                AIR  DIR/SP/G
                 (UTC)          (F)  (DEG/KT/KT) (MB)    (MI)
HARRISON CRIB    0500            74   70/  3/  4   N/A
BURNHAM HARBOR   0500            74  360/  1/  3   N/A
CALUMET HARBOR   0500            77  230/  2/  3 1014.1F
BURNS HARBOR     NOT AVBL
MICHIGAN CITY    0500            76  160/  1/  2   N/A
$$

ABBREVIATIONS USED IN REMARKS
   TC - TEMPERATURE IN CELSIUS
  WCI - WIND CHILL INDEX
   HX - HEAT INDEX
  VSB - VISIBILITY
$$



USA.gov is the U.S. government's official web portal to all federal, state and local government web resources and services.